Regional Weather Roundup
Issued by NWS Grand Forks, ND

Home | Current Version | Previous Version | Graphics & Text | Print | Product List | Glossary On
Versions: 1 2 3 4 5 6 7 8 9 10 11 12 13 14 15 16 17 18 19 20 21 22 23 24 25 26 27 28 29 30 31 32 33 34 35 36 37 38 39 40 41 42 43 44 45 46 47 48 49 50
000
ASUS43 KFGF 020310
RWRFGF
PRAIRIE TO PINES  WEATHER ROUNDUP
NATIONAL WEATHER SERVICE EASTERN NORTH DAKOTA/GRAND FORKS ND
900 PM CST SUN MAR 01 2015

 **SATELLITE DATA USED TO AUGMENT SKY COVER AT AUTOMATED STATIONS**
 *****  WEATHER ACROSS EASTERN NORTH DAKOTA  *****

CITY           SKY/WX    TMP DP  RH WIND       PRES   REMARKS
GRAND FORKS    PTCLDY    10   4  76 W8        30.32S WCI  -2
GRAND FRKS AFB PTCLDY    11   5  74 W7        30.32S WCI   1
GRAND FRKS NWS   N/A      9 N/A N/A W7          N/A  WCI  -3
DEVILS LAKE    CLEAR      7   0  72 W9        30.29S WCI  -7
FARGO          CLEAR      9   3  77 W7        30.37R WCI  -2
WAHPETON ARPT  CLEAR     14   9  79 NW9       30.38R WCI   2
$$

 ***** WEATHER ACROSS CENTRAL AND WESTERN NORTH DAKOTA  *****

CITY           SKY/WX    TMP DP  RH WIND       PRES   REMARKS
BISMARCK       CLEAR      6   2  83 VRB5      30.36S WCI  -3
MINOT          CLEAR     14   6  70 SW9       30.29S WCI   2
JAMESTOWN      CLEAR      9   1  70 W7        30.34S WCI  -2
MINOT AFB      CLEAR      7   3  84 W10       30.28F WCI  -8
GARRISON         N/A      8   4  83 W5        30.31R WCI   0
WILLISTON      PTCLDY     5  -1  76 CALM      30.27F
DICKINSON      CLEAR      8   5  87 S7        30.26S WCI  -3
HETTINGER      CLEAR      7   1  76 CALM      30.30S
$$

 *****  OTHER AIRPORT OBSERVATIONS IN OUR AREA  *****

CITY           SKY/WX    TMP DP  RH WIND       PRES   REMARKS
WALHALLA         N/A     14   5  67 W13       30.29R WCI   0
GRAFTON AIRPOR NOT AVBL
VALLEY CITY AR FAIR      10   7  85 W13       30.34S WCI  -5
CANDO          FAIR       5   1  85 W12       30.28S WCI -11
CAVALIER APRT  FAIR      14   5  67 W9        30.30R WCI   2
GWINNER        PTCLDY    14   7  73 W8        30.38S WCI   3
ROLLA          FAIR       9   5  85 W12       30.25R WCI  -6
 ***** THE ABOVE OBSERVATIONS ARE NON NWS ARE NOT QUALITY
       CONTROLLED AND MAY MIS-REPORT RAIN FOR SNOW...
$$

  *****  WEATHER ACROSS NORTHERN MINNESOTA  *****

CITY           SKY/WX    TMP DP  RH WIND       PRES   REMARKS
FLAG ISLAND    PTCLDY    12   5  73 W8        30.19S WCI   1
WARROAD        PTCLDY     9   3  78 SW8       30.24R WCI  -4
ROSEAU         CLEAR      9   1  72 SW7       30.25R WCI  -3
HALLOCK        NOT AVBL
THF RVR FALLS  CLEAR      9   7  92 W8        30.29S WCI  -4
BAUDETTE       PTCLDY    11   3  70 W10       30.20R WCI  -3
WASKISH        CLEAR      7   3  85 SW9       30.25R WCI  -7
CROOKSTON      CLEAR      7   1  78 W8        30.33S WCI  -6
STEPHEN NDAWN    N/A      9   3  78 SW5         N/A  WCI   0
GREENBUSH NDAW   N/A      7   1  78 MISG        N/A
$$
  *****  WEATHER ACROSS CENTRAL AND WEST MINNESOTA  *****

CITY           SKY/WX    TMP DP  RH WIND       PRES   REMARKS
FOSSTON        CLEAR     -4  -8  84 CALM      30.30R
BEMIDJI        CLEAR      8   5  86 W7        30.26R WCI  -3
PARK RAPIDS    CLEAR      2  -2  83 W7        30.28R WCI -11
ELBOW LAKE     CLOUDY    17  11  80 NW7       30.35R WCI   7
WADENA         CLEAR     10   7  85 NW7       30.30R WCI   0
DETROIT LAKES  CLEAR     12   9  85 W8        30.32R WCI   1
MOORHEAD       CLEAR     10   9  92 W7        30.37R WCI   0
FERGUS FALLS   PTCLDY    10   7  85 NW5       30.39R WCI   2
MORRIS MN      CLOUDY    16  10  79 W8        30.36R WCI   5
STAPLES        CLEAR     10   7  85 NW10      30.30R WCI  -3
$$
  *****  WEATHER ELSEWHERE ACROSS MINNESOTA  *****

CITY           SKY/WX    TMP DP  RH WIND       PRES   REMARKS
DULUTH         PTCLDY    18   7  62 NW17G25   30.17R WCI   3
INTRNTL FALLS  PTCLDY    11   4  73 W8        30.19R WCI  -1
ELY            NOT AVBL
CLOQUET        CLOUDY    19   9  63 W17       30.20R WCI   4
WHEATON        NOT AVBL
BRAINERD       PTCLDY    15   8  73 NW10      30.29R WCI   2
HIBBING        CLOUDY    14   5  67 W10       30.20R WCI   1
ALEXANDRIA     CLEAR     13   7  77 NW9       30.32R WCI   1
SAINT CLOUD    CLOUDY    20  10  65 W15       30.31R WCI   6
MINNEAPOLIS    MOCLDY    24  12  60 W18G25    30.30R WCI  10
$$

  *****  WEATHER ACROSS SOUTH DAKOTA  *****

CITY           SKY/WX    TMP DP  RH WIND       PRES   REMARKS
SIOUX FALLS    CLEAR     18  12  77 W5        30.40R WCI  11
BROOKINGS      NOT AVBL
WATERTOWN      CLEAR     15   9  76 NW8       30.35S WCI   4
HURON          CLEAR     11   8  88 N7        30.41R WCI   0
SISSETON         N/A     16   8  71 NW12      30.38  WCI   3
ABERDEEN       CLEAR     11   5  77 W5        30.40S WCI   3
MITCHELL       CLEAR     20  13  74 SW3       30.43R
PIERRE         CLEAR     18  11  74 NE6       30.39R WCI  10
MOBRIDGE       CLEAR     13   8  81 NE5       30.35R WCI   5
RAPID CITY     CLEAR      8   4  83 CALM      30.31S
$$

  *****  SOME WEATHER IN NEARBY STATES *****

CITY           SKY/WX    TMP DP  RH WIND       PRES   REMARKS
GLASGOW MT     CLEAR     17   9  70 SE10      30.17F WCI   5
GREAT FALLS MT MOCLDY    30  10  43 S18       29.93F WCI  18
CHEYENNE WY    CLOUDY    20  14  77 SW13      30.17S WCI   7
SCOTTSBLUFF NE PTCLDY    23  11  60 E6        30.27R WCI  16
OMAHA NE       PTCLDY    26  18  71 S3        30.42R
DES MOINES IA  PTCLDY    25  14  63 S7        30.40S WCI  17
DAVENPORT IA   CLEAR      8   3  80 W9        30.39S WCI  -5
CHICAGO IL     CLEAR     19  13  77 W13       30.29R WCI   6
EAU CLAIRE WI  PTCLDY    17   7  64 W6        30.25R WCI   9
LA CROSSE WI   CLEAR     19   8  62 SW8       30.31S WCI   9
$$

  *****  SOME NATIONAL WEATHER *****

CITY           SKY/WX    TMP DP  RH WIND       PRES   REMARKS
LA GUARDIA NY  FRZ RAIN  28  25  86 N3        30.22F FOG
RALEIGH NC     CLOUDY    34  32  92 SW7       30.32F FOG
ATLANTA GA     FOG       45  43  93 S5        30.37R VSB 3/4
NEW ORLEANS LA CLOUDY    58  56  93 E9        30.29R FOG
OKLAHOMA CITY  PTCLDY    31  22  69 N9        30.42R WCI  23
ALBUQUERQUE NM MOCLDY    53  31  42 S15       30.06R
SALT LAKE CITY MOCLDY    40  29  64 W7        30.00R
LOS ANGELES CA MOCLDY    56  46  69 CALM      29.93R
BOISE ID       CLEAR     38  21  50 CALM      30.02F
SEATTLE WA     CLOUDY    48  31  51 CALM      29.99F
$$

*** WEATHER ACROSS MANITOBA...SASKATCHEWAN AND ONTARIO ***
                ***ONTARIO***

CITY           SKY/WX    TMP DP  RH WIND       PRES   REMARKS
GERALDTON      PTCLDY    14   5  67 W8G22     29.93R WCI   3
THUNDER BAY    MOCLDY    16   5  62 W14       30.08R WCI   1
SIOUX LOOKOUT  CLEAR     10  -2  56 W7        30.06R WCI   0
TORONTO        MOCLDY    21  14  73 W10       30.14F WCI  10
BIG TROUT LK   CLEAR     -9 -15  77 NW6       30.01R WCI -23
PICKLE LAKE    NOT AVBL
DRYDEN         CLEAR     10   3  72 W14G21    30.10R WCI  -5
KENORA         FLURRIES  10   7  85 W7        30.16R WCI   0
$$
                *** MANITOBA***

CITY           SKY/WX    TMP DP  RH WIND       PRES   REMARKS
BRANDON        CLEAR      0  -4  85 W9        30.26S WCI -16
DAUPHIN        CLEAR      9   1  72 W13       30.24S WCI  -7
ISLAND LAKE    CLEAR     -8 -15  71 W6        30.10R WCI -21
PILOT MOUND      N/A      7   3  85 W7          N/A  WCI  -5
THE PAS        CLEAR      9  -4  56 SW7       30.15S WCI  -3
THOMPSON       PTCLDY   -17 -26  63 CALM      30.08S
WINNIPEG       PTCLDY     5  -2  72 NW8       30.27R WCI  -8
LYNN LAKE      PTCLDY    -2  -9  71 SW7       29.98F WCI -16
CHURCHILL      CRYSTALS -15 -24  64 NW17G23   29.99S WCI -40
GILLAM         CLEAR    -11 -22  58 W8        30.05F WCI -28
$$
                ***SASKATCHEWAN***

CITY           SKY/WX    TMP DP  RH WIND       PRES   REMARKS
ESTEVAN        CLEAR      5   3  92 SW5       30.25F WCI  -4
KINDERSLEY     PTCLDY    16   9  73 SE16      29.98F WCI   0
LLOYDMINSTER   CLEAR     12   9  85 S13       29.91F WCI  -3
PRINCE ALBERT  CLEAR      9   5  85 VRB2      30.10F
REGINA         CLEAR      7   3  85 SE8       30.20F WCI  -6
YORKTON        CLEAR      7   1  78 SW10      30.21S WCI  -8
N. BATTLEFORD  CLEAR      7   5  92 SE12      30.04F WCI  -9
LA RONGE       PTCLDY     9  -4  56 S6        30.01F WCI  -1
SASKATOON      CLEAR     10   7  85 S14       30.10F WCI  -5
SWIFT CURRENT  CLEAR     10   5  79 S13       30.03F WCI  -5
$$
NOTE: THESE ARE AUTOMATED STATIONS WITH LIMITED QUALITY CONTROL
      "FAIR" INDICATES FEW OR NO CLOUDS BELOW 12,000 FEET WITH NO
      SIGNIFICANT WEATHER AND/OR OBSTRUCTIONS TO VISIBILITY.
      SKY/WX - SKY CONDITION AND SIGNIFICANT WEATHER.
      TMP - AIR TEMPERATURE.    DP   - DEWPOINT TEMPERATURE.
      RH  - RELATIVE HUMIDITY.  PRES - PRESSURE.
      HX  - HEAT INDEX.         WCI  - WIND CHILL INDEX.
$


USA.gov is the U.S. government's official web portal to all federal, state and local government web resources and services.